Micco, Florida
Current Conditions -  °F | °C
As of 10:53 PM on Sunday 21 Dec 2014 (Local Time) from KVRB Reporting Station
Scattered Clouds Scattered Clouds  
Wind Chill: 70°   Ceiling: Unl
Heat Index: 70°   Visibility: 10mi
Dew Point: 63°   Wind: 7mph
Humidity: 78%   Direction: 160°SSE
Pressure: 30.05"   Gusts: NA
Location:  27.8606°N, 80.5442°W
Report Text: KVRB 220353Z AUTO 16006KT 10SM SCT110 21/17 A3005 RMK AO2 SLP173 T02110172
Loading
Personal Weather Stations






























Interactive Weather Map New forecast layout! Learn more

10-Day Weather Forecast

Advertisements
Track Severe Weather on mobile